Location: Drocourt
(49.0571°N, 1.7669°E)
Time: 15:44:56
(UTC+00:00)

PSLV R/B - Pass Details

Date: 09 February 2023
Orbit: 491 x 557 km, 97.8° (Epoch: 25 March)

Event Time Altitude Azimuth Distance (km) Brightness Sun altitude
Rises 18:05:28 0° 151° (SSE) 2,586 7.1 -10.7°
Reaches altitude 10° 18:07:33 10° 146° (SE) 1,716 6.1 -11.0°
Maximum altitude 18:11:07 49° 71° (ENE) 671 3.8 -11.6°
Drops below altitude 10° 18:14:48 10° 356° (N) 1,769 6.4 -12.2°
Sets 18:16:59 0° 351° (N) 2,675 7.3 -12.6°
